Weather History for West Yellowstone, MT

Change the Weather History Date:

Wednesday, November 7, 2012

  Actual Average Record
Temperature  
Mean Temperature 37 °F -  
Max Temperature 50 °F 36 °F 50 °F (2010)
Min Temperature 24 °F 16 °F 0 °F (2011)
Degree Days  
Heating Degree Days 28    
Moisture  
Dew Point -    
Average Humidity    
Maximum Humidity    
Minimum Humidity    
Precipitation  
Precipitation 0.00 in - - ()
Sea Level Pressure  
Sea Level Pressure 30.03 in    
Wind  
Wind Speed 5 mph (SW)    
Max Wind Speed 24 mph    
Max Gust Speed 33 mph    
Visibility 10 miles    
Events      
Averages and records for this station are not official NWS values.
T = Trace of Precipitation, MM = Missing Value Source: NWS Daily Summary

Daily Weather History Graph

Daily Weather History Graph

Search for Another Location

Airport:

Trip Planner

Search our weather history database for the weather conditions in past years. The results will help you decide how hot, cold, wet, or windy it might be!

Date:

Astronomy

Nov. 07, 2012 Rise Set
Actual Time 7:11 AM MST 5:04 PM MST
Civil Twilight 6:40 AM MST 5:35 PM MST
Nautical Twilight 6:05 AM MST 6:10 PM MST
Astronomical Twilight 5:31 AM MST 6:44 PM MST
Moon No Moon Rise 1:30 PM MST (11/7)
Length of Visible Light 10h 55m
Length of Day
9h 53m
Last Quarter, 42% of the Moon is Illuminated
Nov 7
Last Quarter
Nov 13
New
Nov 20
First Quarter
Nov 28
Full
Dec 6
Last Quarter

Hourly Weather History & Observations

Time (MST) Temp. Windchill Dew Point Humidity Pressure Visibility Wind Dir Wind Speed Gust Speed Precip Events Conditions
12:10 AM 26.6 °F - - N/A% 30.19 in 10.0 mi Calm Calm - N/A   Clear
12:30 AM 26.6 °F 22.6 °F - N/A% 30.18 in 10.0 mi NE 3.5 mph - N/A   Clear
12:50 AM 26.6 °F - - N/A% 30.17 in 10.0 mi Calm Calm - N/A   Clear
1:10 AM 32.0 °F 26.4 °F - N/A% 30.16 in 10.0 mi West 5.8 mph - N/A   Clear
1:50 AM 32.0 °F 27.5 °F - N/A% 30.15 in 10.0 mi WNW 4.6 mph - N/A   Clear
2:10 AM 32.0 °F 24.2 °F - N/A% 30.15 in 10.0 mi South 9.2 mph - N/A   Clear
2:30 AM 30.2 °F 25.4 °F - N/A% 30.15 in 10.0 mi East 4.6 mph - N/A   Clear
2:50 AM 28.4 °F 22.2 °F - N/A% 30.14 in 10.0 mi South 5.8 mph - N/A   Clear
3:30 AM 28.4 °F 23.3 °F - N/A% 30.14 in 10.0 mi NNE 4.6 mph - N/A   Clear
3:50 AM 28.4 °F - - N/A% 30.13 in 10.0 mi Calm Calm - N/A   Clear
4:10 AM 26.6 °F - - N/A% 30.13 in 10.0 mi Calm Calm - N/A   Clear
4:30 AM 26.6 °F 20.0 °F - N/A% 30.13 in 10.0 mi NW 5.8 mph - N/A   Clear
4:50 AM 26.6 °F - - N/A% 30.13 in 10.0 mi Calm Calm - N/A   Clear
5:10 AM 26.6 °F - - N/A% 30.13 in 10.0 mi Calm Calm - N/A   Clear
5:30 AM 26.6 °F 19.1 °F - N/A% 30.13 in 10.0 mi SW 6.9 mph - N/A   Clear
5:50 AM 26.6 °F - - N/A% 30.12 in 10.0 mi Calm Calm - N/A   Clear
6:10 AM 26.6 °F - - N/A% 30.11 in 10.0 mi Calm Calm - N/A   Clear
6:30 AM 26.6 °F 22.6 °F - N/A% 30.10 in 10.0 mi East 3.5 mph - N/A   Clear
6:50 AM 26.6 °F - - N/A% 30.10 in 10.0 mi Calm Calm - N/A   Clear
7:10 AM 26.6 °F 22.6 °F - N/A% 30.10 in 10.0 mi North 3.5 mph - N/A   Clear
7:30 AM 24.8 °F - - N/A% 30.10 in 10.0 mi Calm Calm - N/A   Clear
7:50 AM 26.6 °F 22.6 °F - N/A% 30.10 in 10.0 mi NE 3.5 mph - N/A   Clear
8:10 AM 28.4 °F - - N/A% 30.10 in 10.0 mi Calm Calm - N/A   Clear
8:30 AM 32.0 °F - - N/A% 30.10 in 10.0 mi Calm Calm - N/A   Clear
8:50 AM 33.8 °F - - N/A% 30.09 in 10.0 mi Calm Calm - N/A   Clear
9:10 AM 39.2 °F 37.0 °F - N/A% 30.07 in 10.0 mi SSE 3.5 mph - N/A   Clear
9:30 AM 44.6 °F 43.1 °F - N/A% 30.07 in 10.0 mi South 3.5 mph - N/A   Clear
9:50 AM 46.4 °F - - N/A% 30.07 in 10.0 mi Calm Calm - N/A   Clear
10:10 AM 46.4 °F 45.2 °F - N/A% 30.06 in 10.0 mi South 3.5 mph - N/A   Scattered Clouds
10:30 AM 48.2 °F - - N/A% 30.05 in 10.0 mi South 11.5 mph 20.7 mph N/A   Scattered Clouds
10:50 AM 48.2 °F - - N/A% 30.04 in 10.0 mi SSW 10.4 mph 19.6 mph N/A   Clear
11:10 AM 48.2 °F - - N/A% 30.03 in 10.0 mi SW 17.3 mph 32.2 mph N/A   Clear
11:30 AM 50.0 °F - - N/A% 30.01 in 10.0 mi SW 19.6 mph 33.4 mph N/A   Clear
11:50 AM 50.0 °F - - N/A% 30.01 in 10.0 mi SW 15.0 mph 33.4 mph N/A   Clear
12:10 PM 50.0 °F - - N/A% 29.99 in 10.0 mi SW 23.0 mph 32.2 mph N/A   Clear
12:30 PM 50.0 °F - - N/A% 29.99 in 10.0 mi SSW 19.6 mph 32.2 mph N/A   Clear
12:50 PM 50.0 °F - - N/A% 29.97 in 10.0 mi SW 24.2 mph 32.2 mph N/A   Partly Cloudy
1:10 PM 48.2 °F - - N/A% 29.98 in 10.0 mi SW 13.8 mph 27.6 mph N/A   Partly Cloudy
1:30 PM 48.2 °F - - N/A% 29.97 in 10.0 mi SW 13.8 mph 27.6 mph N/A   Partly Cloudy
1:50 PM 48.2 °F - - N/A% 29.96 in 10.0 mi SW 13.8 mph 24.2 mph N/A   Partly Cloudy
2:10 PM 48.2 °F - - N/A% 29.96 in 10.0 mi SW 13.8 mph 27.6 mph N/A   Clear
2:30 PM 48.2 °F - - N/A% 29.95 in 10.0 mi WSW 11.5 mph 21.9 mph N/A   Clear
2:50 PM 50.0 °F - - N/A% 29.95 in 10.0 mi SW 9.2 mph 24.2 mph N/A   Clear
3:10 PM 50.0 °F - - N/A% 29.95 in 10.0 mi SW 12.7 mph 20.7 mph N/A   Clear
3:30 PM 50.0 °F - - N/A% 29.94 in 10.0 mi SW 17.3 mph 24.2 mph N/A   Clear
3:50 PM 50.0 °F - - N/A% 29.94 in 10.0 mi SW 15.0 mph 20.7 mph N/A   Clear
4:10 PM 50.0 °F - - N/A% 29.94 in 10.0 mi SW 13.8 mph 25.3 mph N/A   Partly Cloudy
4:30 PM 50.0 °F - - N/A% 29.94 in 10.0 mi SW 11.5 mph 17.3 mph N/A   Mostly Cloudy
4:50 PM 50.0 °F - - N/A% 29.93 in 10.0 mi SW 9.2 mph 18.4 mph N/A   Mostly Cloudy
5:10 PM 48.2 °F - - N/A% 29.93 in 10.0 mi WSW 6.9 mph - N/A   Overcast
5:30 PM 48.2 °F - - N/A% 29.94 in 10.0 mi SW 4.6 mph - N/A   Overcast
5:50 PM 48.2 °F - - N/A% 29.94 in 10.0 mi SW 8.1 mph - N/A   Overcast
6:10 PM 48.2 °F - - N/A% 29.94 in 10.0 mi SW 6.9 mph - N/A   Overcast
6:30 PM 48.2 °F - - N/A% 29.94 in 10.0 mi WSW 6.9 mph - N/A   Overcast
6:50 PM 48.2 °F - - N/A% 29.93 in 10.0 mi WSW 4.6 mph - N/A   Overcast
7:10 PM 48.2 °F - - N/A% 29.93 in 10.0 mi SW 6.9 mph - N/A   Overcast
7:30 PM 48.2 °F - - N/A% 29.94 in 10.0 mi West 8.1 mph - N/A   Overcast
7:50 PM 46.4 °F 45.2 °F - N/A% 29.94 in 10.0 mi West 3.5 mph - N/A   Overcast
8:10 PM 46.4 °F - - N/A% 29.94 in 10.0 mi Calm Calm - N/A   Overcast
8:30 PM 46.4 °F 42.4 °F - N/A% 29.94 in 10.0 mi SW 8.1 mph - N/A   Mostly Cloudy
8:50 PM 46.4 °F 44.3 °F - N/A% 29.94 in 10.0 mi West 4.6 mph - N/A   Scattered Clouds
9:10 PM 44.6 °F - - N/A% 29.94 in 10.0 mi Calm Calm - N/A   Partly Cloudy
9:30 PM 41.0 °F - - N/A% 29.94 in 10.0 mi Calm Calm - N/A   Clear
9:50 PM 41.0 °F 38.0 °F - N/A% 29.94 in 10.0 mi SSW 4.6 mph - N/A   Clear
10:10 PM 44.6 °F 40.2 °F - N/A% 29.94 in 10.0 mi SSW 8.1 mph - N/A   Mostly Cloudy
10:30 PM 41.0 °F 35.2 °F - N/A% 29.94 in 10.0 mi SSE 9.2 mph - N/A   Mostly Cloudy
10:50 PM 41.0 °F 37.1 °F - N/A% 29.94 in 10.0 mi SSE 5.8 mph - N/A   Overcast
11:10 PM 41.0 °F 38.0 °F - N/A% 29.93 in 10.0 mi ESE 4.6 mph - N/A   Overcast
11:30 PM 39.2 °F 35.0 °F - N/A% 29.93 in 10.0 mi ESE 5.8 mph - N/A   Partly Cloudy